Franklin, PA

1:37 AM EST on November 18, 2019 (GMT -0500)
Venango Regional

Weather History for KFKL - September, 2019

Change the Weather History Date:

Sunday, September 1, 2019

  Actual Average Record
Temperature  
Mean Temperature 64 °F -  
Max Temperature 73 °F 78 °F 100 °F (1932)
Min Temperature 57 °F 54 °F 34 °F (1935)
Growing Degree Days 14 (Base 50)    
Moisture  
Dew Point 60 °F    
Average Humidity 90    
Maximum Humidity 100    
Minimum Humidity 71    
Precipitation  
Precipitation 1.38 in - - ()
Sea Level Pressure  
Sea Level Pressure 30.19 in    
Wind  
Wind Speed 6 mph (ESE)    
Max Wind Speed 14 mph    
Max Gust Speed 23 mph    
Visibility 7 miles    
Events Fog , Rain , Thunderstorm    
Averages and records for this station are not official NWS values.
T = Trace of Precipitation, MM = Missing Value Source: NWS Daily Summary

Daily Weather History Graph

Daily Weather History Graph

Search for Another Location

Airport or City:

Astronomy

Sep. 01, 2019 Rise Set
Actual Time 6:45 AM EDT 7:52 PM EDT
Civil Twilight 6:17 AM EDT 8:21 PM EDT
Nautical Twilight 5:43 AM EDT 8:54 PM EDT
Astronomical Twilight 5:07 AM EDT 9:30 PM EDT
Moon 9:14 AM EDT (9/1) 9:37 PM EDT (9/1)
Length of Visible Light 14h 04m
Length of Day
13h 07m
Waxing Crescent, 8% of the Moon is Illuminated
Sep 1
Waxing Crescent
Sep 5
First Quarter
Sep 14
Full
Sep 21
Last Quarter
Sep 28
New

Hourly Weather History & Observations

Time (EDT) Temp. Dew Point Humidity Pressure Visibility Wind Dir Wind Speed Gust Speed Precip Events Conditions
12:56 AM 57.9 °F 54.0 °F 87% 30.28 in 10.0 mi NE 4.6 mph - N/A   Partly Cloudy
1:56 AM 57.9 °F 54.0 °F 87% 30.27 in 10.0 mi East 5.8 mph - N/A   Scattered Clouds
2:56 AM 57.0 °F 55.0 °F 93% 30.26 in 10.0 mi East 5.8 mph - N/A   Clear
3:56 AM 57.9 °F 54.0 °F 87% 30.25 in 10.0 mi East 4.6 mph - N/A   Scattered Clouds
4:56 AM 59.0 °F 53.1 °F 81% 30.25 in 10.0 mi East 5.8 mph - 0.00 in Rain Light Rain
5:56 AM 57.9 °F 54.0 °F 87% 30.24 in 10.0 mi ESE 6.9 mph - 0.00 in Rain Light Rain
6:56 AM 59.0 °F 53.1 °F 81% 30.24 in 10.0 mi ESE 8.1 mph - 0.00 in Rain Light Rain
7:56 AM 60.1 °F 53.1 °F 78% 30.25 in 10.0 mi ESE 6.9 mph - 0.00 in   Overcast
8:56 AM 61.0 °F 53.1 °F 75% 30.26 in 10.0 mi ESE 6.9 mph - N/A   Mostly Cloudy
9:26 AM 62.6 °F 53.6 °F 72% 30.27 in 10.0 mi ESE 9.2 mph - N/A Thunderstorm Overcast
9:49 AM 62.6 °F 55.4 °F 77% 30.27 in 7.0 mi NE 3.5 mph - 0.00 in Rain Light Rain
9:56 AM 62.1 °F 55.9 °F 80% 30.27 in 10.0 mi Calm Calm - 0.00 in Rain Light Rain
10:24 AM 60.8 °F 55.4 °F 82% 30.28 in 8.0 mi SSE 10.4 mph - 0.00 in Rain , Thunderstorm Rain
10:56 AM 59.0 °F 57.0 °F 93% 30.27 in 4.0 mi SE 8.1 mph - 0.06 in Rain Heavy Rain
11:35 AM 59.0 °F 57.2 °F 94% 30.28 in 2.0 mi SSE 11.5 mph - 0.18 in Rain , Thunderstorm Heavy Thunderstorms and Rain
11:38 AM 60.8 °F 57.2 °F 88% 30.28 in 1.8 mi South 9.2 mph - 0.23 in Rain , Thunderstorm Heavy Thunderstorms and Rain
11:53 AM 60.8 °F 59.0 °F 94% 30.27 in 2.0 mi NE 8.1 mph - 0.41 in Rain , Thunderstorm Heavy Thunderstorms and Rain
11:56 AM 60.1 °F 59.0 °F 96% 30.29 in 4.0 mi Variable 4.6 mph - 0.41 in Rain , Thunderstorm Light Thunderstorms and Rain
12:00 PM 60.8 °F 59.0 °F 94% 30.29 in 1.5 mi Variable 4.6 mph - 0.02 in Rain , Thunderstorm Thunderstorms and Rain
12:02 PM 59.0 °F 59.0 °F 100% 30.29 in 0.8 mi Variable 5.8 mph - 0.02 in Rain , Thunderstorm Thunderstorms and Rain
12:06 PM 59.0 °F 57.2 °F 94% 30.28 in 0.2 mi NNE 4.6 mph - 0.02 in Fog , Rain , Thunderstorm Light Thunderstorms and Rain
12:12 PM 59.0 °F 57.2 °F 94% 30.28 in 0.8 mi East 4.6 mph - 0.02 in Rain , Thunderstorm Light Rain
12:15 PM 59.0 °F 59.0 °F 100% 30.27 in 2.0 mi East 5.8 mph - 0.03 in Rain , Thunderstorm Light Rain
12:22 PM 60.8 °F 59.0 °F 94% 30.27 in 6.0 mi East 4.6 mph - 0.03 in Thunderstorm Overcast
12:33 PM 60.8 °F 60.8 °F 100% 30.27 in 10.0 mi East 5.8 mph - 0.03 in Rain Light Rain
12:56 PM 62.1 °F 61.0 °F 96% 30.25 in 10.0 mi East 6.9 mph - 0.03 in   Overcast
1:19 PM 62.6 °F 60.8 °F 94% 30.24 in 10.0 mi East 5.8 mph - 0.00 in Rain Light Rain
1:56 PM 66.0 °F 63.0 °F 90% 30.23 in 10.0 mi ESE 6.9 mph - 0.00 in   Mostly Cloudy
2:56 PM 71.1 °F 64.0 °F 78% 30.20 in 10.0 mi ESE 10.4 mph - N/A   Overcast
3:56 PM 71.1 °F 63.0 °F 75% 30.17 in 10.0 mi SE 12.7 mph - N/A   Mostly Cloudy
4:56 PM 72.0 °F 62.1 °F 71% 30.14 in 10.0 mi SE 9.2 mph - N/A   Mostly Cloudy
5:56 PM 71.1 °F 64.0 °F 78% 30.14 in 10.0 mi South 5.8 mph - N/A   Clear
6:56 PM 70.0 °F 64.0 °F 81% 30.12 in 10.0 mi South 5.8 mph - N/A   Overcast
7:56 PM 66.9 °F 64.9 °F 93% 30.11 in 5.0 mi NE 3.5 mph - 0.04 in Rain Light Rain
8:16 PM 66.2 °F 64.4 °F 94% 30.11 in 7.0 mi WNW 8.1 mph - 0.03 in Rain Light Rain
8:24 PM 66.2 °F 64.4 °F 94% 30.10 in 10.0 mi NW 10.4 mph - 0.03 in Rain , Thunderstorm Light Thunderstorms and Rain
8:34 PM 66.2 °F 64.4 °F 94% 30.11 in 10.0 mi Variable 4.6 mph - 0.04 in Rain , Thunderstorm Light Rain
8:38 PM 66.2 °F 64.4 °F 94% 30.11 in 10.0 mi SW 3.5 mph - 0.04 in Rain , Thunderstorm Rain
8:54 PM 66.2 °F 64.4 °F 94% 30.12 in 4.0 mi East 3.5 mph - 0.11 in Rain , Thunderstorm Heavy Thunderstorms and Rain
8:56 PM 66.0 °F 64.9 °F 96% 30.11 in 3.0 mi Calm Calm - 0.13 in Rain Heavy Rain
9:00 PM 66.2 °F 64.4 °F 94% 30.13 in 2.0 mi Calm Calm - 0.06 in Rain , Thunderstorm Heavy Thunderstorms and Rain
9:04 PM 66.2 °F 64.4 °F 94% 30.13 in 1.8 mi North 3.5 mph - 0.09 in Rain , Thunderstorm Heavy Thunderstorms and Rain
9:10 PM 66.2 °F 64.4 °F 94% 30.13 in 3.0 mi Calm Calm - 0.13 in Rain , Thunderstorm Heavy Thunderstorms and Rain
9:17 PM 66.2 °F 64.4 °F 94% 30.13 in 4.0 mi ESE 5.8 mph - 0.15 in Rain , Thunderstorm Thunderstorms and Rain
9:30 PM 64.4 °F 62.6 °F 94% 30.13 in 4.0 mi South 13.8 mph 23.0 mph 0.23 in Rain , Thunderstorm Heavy Thunderstorms and Rain
9:40 PM 64.4 °F 62.6 °F 94% 30.12 in 3.0 mi SSE 6.9 mph - 0.35 in Rain , Thunderstorm Heavy Thunderstorms and Rain
9:56 PM 64.9 °F 64.0 °F 97% 30.10 in 7.0 mi SE 9.2 mph - 0.42 in Rain , Thunderstorm Light Thunderstorms and Rain
10:16 PM 66.2 °F 64.4 °F 94% 30.09 in 10.0 mi SE 10.4 mph - 0.00 in Rain Light Rain
10:40 PM 66.2 °F 64.4 °F 94% 30.11 in 10.0 mi SE 8.1 mph - 0.01 in   Overcast
10:53 PM 66.2 °F 64.4 °F 94% 30.11 in 10.0 mi Variable 3.5 mph - 0.01 in Rain Light Rain
10:56 PM 66.0 °F 64.0 °F 93% 30.12 in 10.0 mi Calm Calm - 0.01 in Rain , Thunderstorm Light Rain
11:09 PM 64.4 °F 64.4 °F 100% 30.14 in 6.0 mi NW 5.8 mph - 0.06 in Rain , Thunderstorm Heavy Rain
11:29 PM 64.4 °F 64.4 °F 100% 30.13 in 4.0 mi Calm Calm - 0.16 in Rain Heavy Rain
11:36 PM 64.4 °F 64.4 °F 100% 30.13 in 2.5 mi Calm Calm - 0.20 in Rain Heavy Rain
11:46 PM 64.4 °F 64.4 °F 100% 30.11 in 3.0 mi ESE 3.5 mph - 0.25 in Rain Rain
11:56 PM 64.9 °F 64.0 °F 97% 30.10 in 3.0 mi East 3.5 mph - 0.28 in Rain Rain